Time,TemperatureF,DewpointF,PressureIn,WindDirection,WindDirectionDegrees,WindSpeedMPH,WindSpeedGustMPH,Humidity,HourlyPrecipIn,Conditions,Clouds,dailyrainin,SoftwareType,DateUTC
2013-06-30 00:02:00,64.5,58.0,29.72,NNE,23,5.9,8.7,79,0.00,,,0.00,WSDL version 430,2013-06-30 05:02:00,
2013-06-30 00:07:00,64.4,57.7,29.72,NNE,15,5.4,8.7,78,0.00,,,0.00,WSDL version 430,2013-06-30 05:07:00,
2013-06-30 00:12:00,64.4,57.4,29.72,NNE,23,4.4,8.7,78,0.00,,,0.00,WSDL version 430,2013-06-30 05:12:00,
2013-06-30 00:17:00,64.4,57.4,29.72,NNE,19,5.1,6.5,78,0.00,,,0.00,WSDL version 430,2013-06-30 05:17:00,
2013-06-30 00:22:00,64.4,57.4,29.72,NNE,23,4.8,8.1,78,0.00,,,0.00,WSDL version 430,2013-06-30 05:22:00,
2013-06-30 00:27:00,64.2,57.4,29.73,NNE,20,4.5,8.1,79,0.00,,,0.00,WSDL version 430,2013-06-30 05:27:00,
2013-06-30 00:32:00,64.2,57.6,29.73,NNE,23,3.3,6.3,79,0.00,,,0.00,WSDL version 430,2013-06-30 05:32:00,
2013-06-30 00:37:00,64.1,57.4,29.73,NNE,23,4.8,6.5,79,0.00,,,0.00,WSDL version 430,2013-06-30 05:37:00,
2013-06-30 00:42:00,63.9,57.3,29.73,North,10,3.4,6.5,79,0.00,,,0.00,WSDL version 430,2013-06-30 05:42:00,
2013-06-30 00:47:00,63.8,57.2,29.73,NNE,17,4.4,6.3,79,0.00,,,0.00,WSDL version 430,2013-06-30 05:47:00,
2013-06-30 00:52:00,63.7,57.1,29.73,NNE,20,3.5,6.3,79,0.00,,,0.00,WSDL version 430,2013-06-30 05:52:00,
2013-06-30 00:57:00,63.5,56.9,29.73,NNE,23,3.1,6.0,79,0.00,,,0.00,WSDL version 430,2013-06-30 05:57:00,
2013-06-30 01:02:00,63.4,57.1,29.73,NNE,23,3.8,6.5,80,0.00,,,0.00,WSDL version 430,2013-06-30 06:02:00,
2013-06-30 01:07:00,63.3,57.1,29.73,NNE,16,5.1,6.5,80,0.00,,,0.00,WSDL version 430,2013-06-30 06:07:00,
2013-06-30 01:12:00,63.1,56.9,29.73,NNE,30,4.2,6.5,80,0.00,,,0.00,WSDL version 430,2013-06-30 06:12:00,
2013-06-30 01:17:00,63.1,56.9,29.73,North,3,4.0,6.5,80,0.00,,,0.00,WSDL version 430,2013-06-30 06:17:00,
2013-06-30 01:22:00,63.1,57.1,29.73,North,355,3.6,6.5,81,0.00,,,0.00,WSDL version 430,2013-06-30 06:22:00,
2013-06-30 01:27:00,63.0,57.0,29.73,North,6,2.6,6.5,81,0.00,,,0.00,WSDL version 430,2013-06-30 06:27:00,
2013-06-30 01:32:00,62.8,57.2,29.73,NNE,23,4.4,7.2,82,0.00,,,0.00,WSDL version 430,2013-06-30 06:32:00,
2013-06-30 01:37:00,62.6,57.2,29.73,NNE,13,3.8,7.6,83,0.00,,,0.00,WSDL version 430,2013-06-30 06:37:00,
2013-06-30 01:42:00,62.5,57.5,29.73,NNE,20,4.5,7.8,84,0.00,,,0.00,WSDL version 430,2013-06-30 06:42:00,
2013-06-30 01:47:00,62.4,57.6,29.73,NNE,18,7.1,10.5,84,0.00,,,0.00,WSDL version 430,2013-06-30 06:47:00,
2013-06-30 01:52:00,62.5,57.4,29.73,NNE,23,7.0,10.5,83,0.00,,,0.00,WSDL version 430,2013-06-30 06:52:00,
2013-06-30 01:57:00,62.6,57.1,29.73,NNE,23,6.0,9.6,82,0.00,,,0.00,WSDL version 430,2013-06-30 06:57:00,
2013-06-30 02:02:00,62.8,57.2,29.73,NNE,23,6.0,8.7,82,0.00,,,0.00,WSDL version 430,2013-06-30 07:02:00,
2013-06-30 02:07:00,62.8,56.9,29.73,North,3,3.8,8.7,81,0.00,,,0.00,WSDL version 430,2013-06-30 07:07:00,
2013-06-30 02:12:00,62.8,56.9,29.73,North,10,5.7,8.5,81,0.00,,,0.00,WSDL version 430,2013-06-30 07:12:00,
2013-06-30 02:17:00,62.8,56.8,29.73,NE,34,5.8,8.7,81,0.00,,,0.00,WSDL version 430,2013-06-30 07:17:00,
2013-06-30 02:22:00,62.6,56.7,29.73,NNE,20,6.6,11.0,81,0.00,,,0.00,WSDL version 430,2013-06-30 07:22:00,
2013-06-30 02:27:00,62.6,56.7,29.73,NNE,26,4.8,11.0,81,0.00,,,0.00,WSDL version 430,2013-06-30 07:27:00,
2013-06-30 02:32:00,62.5,56.6,29.73,NNE,13,6.2,10.3,81,0.00,,,0.00,WSDL version 430,2013-06-30 07:32:00,
2013-06-30 02:37:00,62.4,56.8,29.73,North,10,5.8,7.8,82,0.00,,,0.00,WSDL version 430,2013-06-30 07:37:00,
2013-06-30 02:42:00,62.4,56.9,29.73,North,354,4.6,7.6,82,0.00,,,0.00,WSDL version 430,2013-06-30 07:42:00,
2013-06-30 02:47:00,62.4,56.9,29.73,North,6,4.2,6.3,82,0.00,,,0.00,WSDL version 430,2013-06-30 07:47:00,
2013-06-30 02:52:00,62.3,56.7,29.73,North,360,3.2,6.3,82,0.00,,,0.00,WSDL version 430,2013-06-30 07:52:00,
2013-06-30 02:57:00,62.2,56.9,29.73,NNE,23,3.3,6.3,83,0.00,,,0.00,WSDL version 430,2013-06-30 07:57:00,
2013-06-30 03:02:00,62.1,56.8,29.73,NNE,13,3.9,6.5,83,0.00,,,0.00,WSDL version 430,2013-06-30 08:02:00,
2013-06-30 03:07:00,62.1,56.9,29.73,NNE,15,5.1,8.1,84,0.00,,,0.00,WSDL version 430,2013-06-30 08:07:00,
2013-06-30 03:12:00,62.1,56.9,29.73,North,10,3.2,8.1,84,0.00,,,0.00,WSDL version 430,2013-06-30 08:12:00,
2013-06-30 03:17:00,62.0,57.1,29.73,NNW,346,3.0,6.3,84,0.00,,,0.00,WSDL version 430,2013-06-30 08:17:00,
2013-06-30 03:22:00,61.9,57.0,29.73,North,3,3.2,4.7,84,0.00,,,0.00,WSDL version 430,2013-06-30 08:22:00,
2013-06-30 03:27:00,61.7,57.1,29.73,North,356,4.0,6.5,85,0.00,,,0.00,WSDL version 430,2013-06-30 08:27:00,
2013-06-30 03:32:00,61.6,57.2,29.73,North,8,3.4,6.5,86,0.00,,,0.00,WSDL version 430,2013-06-30 08:32:00,
2013-06-30 03:37:00,61.5,57.4,29.73,NNE,17,3.9,6.3,87,0.00,,,0.00,WSDL version 430,2013-06-30 08:37:00,
2013-06-30 03:42:00,61.5,57.6,29.73,North,6,5.0,6.7,87,0.00,,,0.00,WSDL version 430,2013-06-30 08:42:00,
2013-06-30 03:47:00,61.5,57.6,29.73,NNE,19,3.4,6.7,87,0.00,,,0.00,WSDL version 430,2013-06-30 08:47:00,
2013-06-30 03:52:00,61.5,57.6,29.73,North,8,2.8,7.4,87,0.00,,,0.00,WSDL version 430,2013-06-30 08:52:00,
2013-06-30 03:57:00,61.5,57.6,29.74,NNW,344,2.8,7.4,87,0.00,,,0.00,WSDL version 430,2013-06-30 08:57:00,
2013-06-30 04:02:00,61.5,57.6,29.74,North,10,3.0,4.3,87,0.00,,,0.00,WSDL version 430,2013-06-30 09:02:00,
2013-06-30 04:07:00,61.4,57.5,29.74,NNE,14,3.3,4.3,87,0.00,,,0.00,WSDL version 430,2013-06-30 09:07:00,
2013-06-30 04:12:00,61.3,57.8,29.74,NNE,20,3.4,5.6,88,0.00,,,0.00,WSDL version 430,2013-06-30 09:12:00,
2013-06-30 04:17:00,61.3,57.8,29.74,NNE,20,3.2,5.6,88,0.00,,,0.00,WSDL version 430,2013-06-30 09:17:00,
2013-06-30 04:22:00,61.3,57.7,29.75,NNE,17,3.8,5.4,88,0.00,,,0.00,WSDL version 430,2013-06-30 09:22:00,
2013-06-30 04:27:00,61.2,57.6,29.74,North,354,3.2,4.0,88,0.00,,,0.00,WSDL version 430,2013-06-30 09:27:00,
2013-06-30 04:32:00,61.0,57.4,29.75,North,4,2.2,4.0,88,0.00,,,0.00,WSDL version 430,2013-06-30 09:32:00,
2013-06-30 04:37:00,60.9,57.4,29.75,North,6,2.3,4.0,88,0.00,,,0.00,WSDL version 430,2013-06-30 09:37:00,
2013-06-30 04:42:00,60.8,57.4,29.75,NNW,340,2.7,4.0,89,0.00,,,0.00,WSDL version 430,2013-06-30 09:42:00,
2013-06-30 04:47:00,60.8,57.5,29.75,North,354,2.4,3.6,89,0.00,,,0.00,WSDL version 430,2013-06-30 09:47:00,
2013-06-30 04:52:00,60.7,57.6,29.75,North,10,3.0,5.4,90,0.00,,,0.00,WSDL version 430,2013-06-30 09:52:00,
2013-06-30 04:57:00,60.6,57.8,29.75,North,5,3.4,7.6,91,0.00,,,0.00,WSDL version 430,2013-06-30 09:57:00,
2013-06-30 05:02:00,60.6,58.0,29.76,North,6,2.6,7.6,91,0.00,,,0.00,WSDL version 430,2013-06-30 10:02:00,
2013-06-30 05:07:00,60.6,58.0,29.76,North,8,3.6,5.4,91,0.00,,,0.00,WSDL version 430,2013-06-30 10:07:00,
2013-06-30 05:12:00,60.5,57.9,29.76,North,6,2.9,5.4,91,0.00,,,0.00,WSDL version 430,2013-06-30 10:12:00,
2013-06-30 05:17:00,60.4,57.8,29.76,NNE,17,3.2,5.8,91,0.00,,,0.00,WSDL version 430,2013-06-30 10:17:00,
2013-06-30 05:22:00,60.4,57.8,29.76,NNE,19,3.1,5.8,91,0.00,,,0.00,WSDL version 430,2013-06-30 10:22:00,
2013-06-30 05:27:00,60.4,58.1,29.76,NNE,13,5.0,6.0,92,0.00,,,0.00,WSDL version 430,2013-06-30 10:27:00,
2013-06-30 05:32:00,60.4,58.1,29.76,North,10,3.2,6.0,92,0.00,,,0.00,WSDL version 430,2013-06-30 10:32:00,
2013-06-30 05:37:00,60.4,58.1,29.76,NNE,20,3.7,5.6,92,0.00,,,0.00,WSDL version 430,2013-06-30 10:37:00,
2013-06-30 05:42:00,60.4,58.3,29.77,North,360,2.9,4.9,93,0.00,,,0.00,WSDL version 430,2013-06-30 10:42:00,
2013-06-30 05:47:00,60.4,58.4,29.77,North,6,2.7,4.9,93,0.00,,,0.00,WSDL version 430,2013-06-30 10:47:00,
2013-06-30 05:52:00,60.4,58.4,29.77,North,360,3.2,4.7,93,0.00,,,0.00,WSDL version 430,2013-06-30 10:52:00,
2013-06-30 05:57:00,60.4,58.4,29.77,North,360,3.1,4.7,93,0.00,,,0.00,WSDL version 430,2013-06-30 10:57:00,
2013-06-30 06:02:00,60.6,58.6,29.77,NNE,20,3.2,5.8,93,0.00,,,0.00,WSDL version 430,2013-06-30 11:02:00,
2013-06-30 06:07:00,60.6,58.6,29.77,NNE,15,3.1,5.8,93,0.00,,,0.00,WSDL version 430,2013-06-30 11:07:00,
2013-06-30 06:12:00,60.6,58.6,29.77,NNE,16,2.9,4.9,93,0.00,,,0.00,WSDL version 430,2013-06-30 11:12:00,
2013-06-30 06:17:00,60.6,58.6,29.78,North,360,2.6,4.9,93,0.00,,,0.00,WSDL version 430,2013-06-30 11:17:00,
2013-06-30 06:22:00,60.8,58.7,29.78,NNE,19,3.5,4.7,93,0.00,,,0.00,WSDL version 430,2013-06-30 11:22:00,
2013-06-30 06:27:00,60.8,58.8,29.78,NNE,17,2.5,4.7,93,0.00,,,0.00,WSDL version 430,2013-06-30 11:27:00,
2013-06-30 06:32:00,61.0,58.9,29.78,North,4,3.0,4.0,93,0.00,,,0.00,WSDL version 430,2013-06-30 11:32:00,
2013-06-30 06:37:00,61.1,59.1,29.78,North,353,2.6,5.4,93,0.00,,,0.00,WSDL version 430,2013-06-30 11:37:00,
2013-06-30 06:42:00,61.3,59.5,29.78,North,357,3.4,5.4,94,0.00,,,0.00,WSDL version 430,2013-06-30 11:42:00,
2013-06-30 06:47:00,61.4,59.7,29.79,North,357,3.0,4.3,94,0.00,,,0.00,WSDL version 430,2013-06-30 11:47:00,
2013-06-30 06:52:00,61.7,59.9,29.79,NNE,19,2.9,5.6,94,0.00,,,0.00,WSDL version 430,2013-06-30 11:52:00,
2013-06-30 06:57:00,61.8,60.1,29.79,North,354,2.5,5.6,94,0.00,,,0.00,WSDL version 430,2013-06-30 11:57:00,
2013-06-30 07:02:00,62.0,60.2,29.79,North,352,3.4,4.9,94,0.00,,,0.00,WSDL version 430,2013-06-30 12:02:00,
2013-06-30 07:08:00,62.1,60.3,29.79,North,354,3.8,5.4,93,0.00,,,0.00,WSDL version 430,2013-06-30 12:08:00,
2013-06-30 07:13:00,62.2,60.2,29.79,NNE,13,5.8,8.1,93,0.00,,,0.00,WSDL version 430,2013-06-30 12:13:00,
2013-06-30 07:18:00,62.4,60.1,29.79,North,11,4.4,8.5,92,0.00,,,0.00,WSDL version 430,2013-06-30 12:18:00,
2013-06-30 07:23:00,62.4,60.1,29.79,NNE,18,5.1,8.7,92,0.00,,,0.00,WSDL version 430,2013-06-30 12:23:00,
2013-06-30 07:28:00,62.6,59.9,29.79,NNE,19,4.8,8.7,91,0.00,,,0.00,WSDL version 430,2013-06-30 12:28:00,
2013-06-30 07:33:00,62.7,60.0,29.80,North,3,4.7,8.9,90,0.00,,,0.00,WSDL version 430,2013-06-30 12:33:00,
2013-06-30 07:38:00,63.0,60.0,29.80,North,8,4.2,8.9,90,0.00,,,0.00,WSDL version 430,2013-06-30 12:38:00,
2013-06-30 07:43:00,63.1,59.8,29.80,NNE,23,5.5,10.1,89,0.00,,,0.00,WSDL version 430,2013-06-30 12:43:00,
2013-06-30 07:48:00,63.2,59.9,29.80,NNE,16,7.3,12.3,89,0.00,,,0.00,WSDL version 430,2013-06-30 12:48:00,
2013-06-30 07:53:00,63.5,60.0,29.80,North,11,7.3,12.3,88,0.00,,,0.00,WSDL version 430,2013-06-30 12:53:00,
2013-06-30 07:58:00,63.5,59.9,29.80,NNE,17,4.3,8.7,88,0.00,,,0.00,WSDL version 430,2013-06-30 12:58:00,
2013-06-30 08:03:00,63.8,60.2,29.80,NNE,25,3.8,8.1,88,0.00,,,0.00,WSDL version 430,2013-06-30 13:03:00,
2013-06-30 08:08:00,64.0,60.4,29.80,North,360,4.3,7.8,88,0.00,,,0.00,WSDL version 430,2013-06-30 13:08:00,
2013-06-30 08:13:00,64.2,60.4,29.81,North,5,4.5,7.8,87,0.00,,,0.00,WSDL version 430,2013-06-30 13:13:00,
2013-06-30 08:18:00,64.7,60.7,29.81,North,6,4.9,8.1,87,0.00,,,0.00,WSDL version 430,2013-06-30 13:18:00,
2013-06-30 08:23:00,64.9,60.7,29.81,North,11,6.3,9.8,85,0.00,,,0.00,WSDL version 430,2013-06-30 13:23:00,
2013-06-30 08:28:00,65.1,60.5,29.81,NNE,23,3.2,9.8,85,0.00,,,0.00,WSDL version 430,2013-06-30 13:28:00,
2013-06-30 08:33:00,65.1,60.8,29.81,NNE,28,6.1,10.5,86,0.00,,,0.00,WSDL version 430,2013-06-30 13:33:00,
2013-06-30 08:38:00,65.2,60.6,29.81,NNE,26,6.0,10.5,85,0.00,,,0.00,WSDL version 430,2013-06-30 13:38:00,
2013-06-30 08:43:00,65.4,60.8,29.81,NE,43,5.2,8.5,85,0.00,,,0.00,WSDL version 430,2013-06-30 13:43:00,
2013-06-30 08:48:00,65.7,61.1,29.81,North,11,5.3,8.5,86,0.00,,,0.00,WSDL version 430,2013-06-30 13:48:00,
2013-06-30 08:53:00,66.0,61.0,29.81,NNE,32,4.3,7.6,84,0.00,,,0.00,WSDL version 430,2013-06-30 13:53:00,
2013-06-30 08:58:00,66.3,61.0,29.81,North,3,4.7,6.5,82,0.00,,,0.00,WSDL version 430,2013-06-30 13:58:00,
2013-06-30 09:03:00,67.0,61.9,29.81,NNE,14,4.7,8.7,85,0.00,,,0.00,WSDL version 430,2013-06-30 14:03:00,
2013-06-30 09:08:00,67.4,61.8,29.81,North,360,5.4,8.7,82,0.00,,,0.00,WSDL version 430,2013-06-30 14:08:00,
2013-06-30 09:13:00,67.9,62.4,29.81,NNE,23,5.0,8.7,82,0.00,,,0.00,WSDL version 430,2013-06-30 14:13:00,
2013-06-30 09:18:00,68.1,61.6,29.81,NNE,23,5.7,8.7,79,0.00,,,0.00,WSDL version 430,2013-06-30 14:18:00,
2013-06-30 09:23:00,68.5,61.4,29.81,North,8,7.4,8.7,76,0.00,,,0.00,WSDL version 430,2013-06-30 14:23:00,
2013-06-30 09:28:00,68.8,61.6,29.81,NNE,16,5.8,8.7,78,0.00,,,0.00,WSDL version 430,2013-06-30 14:28:00,
2013-06-30 09:33:00,69.1,61.4,29.81,North,10,5.0,10.7,74,0.00,,,0.00,WSDL version 430,2013-06-30 14:33:00,
2013-06-30 09:38:00,69.3,61.4,29.81,NNE,25,5.8,10.7,77,0.00,,,0.00,WSDL version 430,2013-06-30 14:38:00,
2013-06-30 09:43:00,69.7,62.2,29.81,NE,37,7.0,10.3,77,0.00,,,0.00,WSDL version 430,2013-06-30 14:43:00,
2013-06-30 09:48:00,69.9,61.8,29.81,NNE,28,6.7,10.5,73,0.00,,,0.00,WSDL version 430,2013-06-30 14:48:00,
2013-06-30 09:54:00,70.0,61.2,29.81,NNE,33,5.8,10.5,73,0.00,,,0.00,WSDL version 430,2013-06-30 14:54:00,
2013-06-30 09:59:00,70.1,60.9,29.81,NNE,23,8.5,13.2,72,0.00,,,0.00,WSDL version 430,2013-06-30 14:59:00,
2013-06-30 10:04:00,69.8,60.6,29.82,NNE,17,7.5,13.2,73,0.00,,,0.00,WSDL version 430,2013-06-30 15:04:00,
2013-06-30 10:09:00,69.4,59.8,29.82,NE,37,6.0,13.2,71,0.00,,,0.00,WSDL version 430,2013-06-30 15:09:00,
2013-06-30 10:14:00,69.2,59.9,29.82,NNE,20,6.7,11.0,73,0.00,,,0.00,WSDL version 430,2013-06-30 15:14:00,
2013-06-30 10:19:00,69.6,61.1,29.82,NNE,31,5.3,10.5,75,0.00,,,0.00,WSDL version 430,2013-06-30 15:19:00,
2013-06-30 10:24:00,69.9,61.1,29.82,NE,37,6.0,10.3,73,0.00,,,0.00,WSDL version 430,2013-06-30 15:24:00,
2013-06-30 10:29:00,70.0,60.7,29.82,NE,35,5.8,10.3,72,0.00,,,0.00,WSDL version 430,2013-06-30 15:29:00,
2013-06-30 10:34:00,70.2,61.0,29.82,NNE,16,3.6,9.2,73,0.00,,,0.00,WSDL version 430,2013-06-30 15:34:00,
2013-06-30 10:39:00,70.2,60.8,29.82,NNE,25,6.6,9.2,72,0.00,,,0.00,WSDL version 430,2013-06-30 15:39:00,
2013-06-30 10:44:00,69.9,59.6,29.83,NNE,19,6.1,12.5,69,0.00,,,0.00,WSDL version 430,2013-06-30 15:44:00,
2013-06-30 10:49:00,69.8,59.3,29.83,NE,38,5.5,12.5,69,0.00,,,0.00,WSDL version 430,2013-06-30 15:49:00,
2013-06-30 10:54:00,70.0,59.3,29.83,North,10,7.3,12.1,68,0.00,,,0.00,WSDL version 430,2013-06-30 15:54:00,
2013-06-30 10:59:00,70.2,59.8,29.83,NNE,20,6.5,12.1,69,0.00,,,0.00,WSDL version 430,2013-06-30 15:59:00,
2013-06-30 11:04:00,70.3,59.7,29.83,NE,55,6.1,14.5,69,0.00,,,0.00,WSDL version 430,2013-06-30 16:04:00,
2013-06-30 11:09:00,70.3,59.5,29.83,ENE,76,5.6,14.5,68,0.00,,,0.00,WSDL version 430,2013-06-30 16:09:00,
2013-06-30 11:14:00,70.3,59.5,29.83,NNE,23,7.7,12.1,68,0.00,,,0.00,WSDL version 430,2013-06-30 16:14:00,
2013-06-30 11:19:00,70.3,59.4,29.83,NE,42,5.8,12.1,67,0.00,,,0.00,WSDL version 430,2013-06-30 16:19:00,
2013-06-30 11:24:00,70.3,59.2,29.83,NNE,23,6.2,11.0,69,0.00,,,0.00,WSDL version 430,2013-06-30 16:24:00,
2013-06-30 11:29:00,70.1,59.0,29.84,NNE,20,8.4,15.2,68,0.00,,,0.00,WSDL version 430,2013-06-30 16:29:00,
2013-06-30 11:34:00,70.0,58.9,29.84,NNE,26,8.5,15.2,68,0.00,,,0.00,WSDL version 430,2013-06-30 16:34:00,
2013-06-30 11:40:00,69.6,59.4,29.84,NNE,14,7.1,12.8,70,0.00,,,0.00,WSDL version 430,2013-06-30 16:40:00,
2013-06-30 11:45:00,69.6,59.6,29.84,NE,38,4.3,8.7,71,0.00,,,0.00,WSDL version 430,2013-06-30 16:45:00,
2013-06-30 11:50:00,69.8,60.0,29.84,NE,45,4.9,8.1,71,0.00,,,0.00,WSDL version 430,2013-06-30 16:50:00,
2013-06-30 11:55:00,70.2,60.3,29.84,NE,37,4.7,10.5,71,0.00,,,0.00,WSDL version 430,2013-06-30 16:55:00,
2013-06-30 12:00:00,70.2,59.7,29.84,NNE,25,6.5,10.5,69,0.00,,,0.00,WSDL version 430,2013-06-30 17:00:00,
2013-06-30 12:06:00,70.7,60.1,29.84,NE,35,5.1,10.5,68,0.00,,,0.00,WSDL version 430,2013-06-30 17:06:00,
2013-06-30 12:11:00,70.7,59.6,29.84,NE,45,4.4,10.3,68,0.00,,,0.00,WSDL version 430,2013-06-30 17:11:00,
2013-06-30 12:16:00,71.7,61.2,29.84,NNE,29,5.7,8.5,69,0.00,,,0.00,WSDL version 430,2013-06-30 17:16:00,
2013-06-30 12:21:00,72.1,60.8,29.84,NE,53,4.5,12.3,68,0.00,,,0.00,WSDL version 430,2013-06-30 17:21:00,
2013-06-30 12:26:00,72.6,61.3,29.84,NNE,28,7.4,12.3,67,0.00,,,0.00,WSDL version 430,2013-06-30 17:26:00,
2013-06-30 12:31:00,72.7,61.1,29.84,NNE,30,6.6,13.6,68,0.00,,,0.00,WSDL version 430,2013-06-30 17:31:00,
2013-06-30 12:36:00,73.0,61.8,29.84,NNE,23,5.8,13.6,68,0.00,,,0.00,WSDL version 430,2013-06-30 17:36:00,
2013-06-30 12:41:00,73.2,61.1,29.84,NE,38,8.8,11.0,65,0.00,,,0.00,WSDL version 430,2013-06-30 17:41:00,
2013-06-30 12:46:00,73.3,61.3,29.83,NE,39,5.4,11.0,67,0.00,,,0.00,WSDL version 430,2013-06-30 17:46:00,
2013-06-30 12:51:00,73.6,61.1,29.83,NNE,17,10.2,13.0,65,0.00,,,0.00,WSDL version 430,2013-06-30 17:51:00,
2013-06-30 12:56:00,73.8,61.5,29.84,NNE,30,6.9,13.0,65,0.00,,,0.00,WSDL version 430,2013-06-30 17:56:00,
2013-06-30 13:01:00,74.2,61.7,29.84,ENE,58,6.2,10.7,65,0.00,,,0.00,WSDL version 430,2013-06-30 18:01:00,
2013-06-30 13:06:00,74.4,61.0,29.84,NE,37,5.7,10.5,62,0.00,,,0.00,WSDL version 430,2013-06-30 18:06:00,
2013-06-30 13:11:00,74.1,60.4,29.84,NE,39,6.7,13.2,61,0.00,,,0.00,WSDL version 430,2013-06-30 18:11:00,
2013-06-30 13:16:00,73.9,60.1,29.84,NNE,19,7.0,13.6,63,0.00,,,0.00,WSDL version 430,2013-06-30 18:16:00,
2013-06-30 13:21:00,73.8,60.0,29.84,NNE,28,6.5,13.6,63,0.00,,,0.00,WSDL version 430,2013-06-30 18:21:00,
2013-06-30 13:26:00,73.9,60.1,29.83,NE,42,5.0,14.5,61,0.00,,,0.00,WSDL version 430,2013-06-30 18:26:00,
2013-06-30 13:31:00,74.3,61.3,29.83,NE,45,3.4,14.5,63,0.00,,,0.00,WSDL version 430,2013-06-30 18:31:00,
2013-06-30 13:36:00,74.6,59.4,29.83,NE,53,6.2,10.3,57,0.00,,,0.00,WSDL version 430,2013-06-30 18:36:00,
2013-06-30 13:41:00,74.9,59.7,29.83,ENE,60,4.7,8.5,61,0.00,,,0.00,WSDL version 430,2013-06-30 18:41:00,
2013-06-30 13:46:00,75.4,60.7,29.83,NE,37,6.0,12.5,60,0.00,,,0.00,WSDL version 430,2013-06-30 18:46:00,
2013-06-30 13:51:00,75.5,59.0,29.83,NE,45,6.6,12.5,56,0.00,,,0.00,WSDL version 430,2013-06-30 18:51:00,
2013-06-30 13:56:00,75.4,58.9,29.83,NE,45,6.3,13.4,57,0.00,,,0.00,WSDL version 430,2013-06-30 18:56:00,
2013-06-30 14:01:00,75.5,59.5,29.83,NNE,25,7.8,13.4,60,0.00,,,0.00,WSDL version 430,2013-06-30 19:01:00,
2013-06-30 14:06:00,75.6,59.5,29.83,NNE,17,9.6,12.5,57,0.00,,,0.00,WSDL version 430,2013-06-30 19:06:00,
2013-06-30 14:11:00,75.6,59.3,29.83,NNE,20,9.8,12.5,56,0.00,,,0.00,WSDL version 430,2013-06-30 19:11:00,
2013-06-30 14:16:00,75.5,59.1,29.83,NE,40,6.4,12.1,58,0.00,,,0.00,WSDL version 430,2013-06-30 19:16:00,
2013-06-30 14:21:00,75.6,59.9,29.83,ENE,64,6.5,10.5,58,0.00,,,0.00,WSDL version 430,2013-06-30 19:21:00,
2013-06-30 14:26:00,75.7,60.4,29.83,NNE,23,8.2,17.0,58,0.00,,,0.00,WSDL version 430,2013-06-30 19:26:00,
2013-06-30 14:31:00,75.7,58.9,29.83,NNE,25,7.4,17.0,55,0.00,,,0.00,WSDL version 430,2013-06-30 19:31:00,
2013-06-30 14:36:00,75.8,59.0,29.83,NE,39,6.9,11.9,56,0.00,,,0.00,WSDL version 430,2013-06-30 19:36:00,
2013-06-30 14:41:00,76.0,59.3,29.83,North,10,9.0,15.2,55,0.00,,,0.00,WSDL version 430,2013-06-30 19:41:00,
2013-06-30 14:46:00,76.1,60.2,29.83,NNE,26,7.4,15.2,58,0.00,,,0.00,WSDL version 430,2013-06-30 19:46:00,
2013-06-30 14:51:00,76.2,59.6,29.83,NNE,23,6.1,11.9,57,0.00,,,0.00,WSDL version 430,2013-06-30 19:51:00,
2013-06-30 14:56:00,76.2,59.0,29.83,NNE,28,8.5,13.0,54,0.00,,,0.00,WSDL version 430,2013-06-30 19:56:00,
2013-06-30 15:01:00,76.1,58.1,29.83,North,10,7.6,13.2,54,0.00,,,0.00,WSDL version 430,2013-06-30 20:01:00,
2013-06-30 15:06:00,76.0,57.6,29.83,NNE,33,8.3,13.2,53,0.00,,,0.00,WSDL version 430,2013-06-30 20:06:00,
2013-06-30 15:11:00,76.0,58.3,29.83,NNE,25,8.2,12.1,54,0.00,,,0.00,WSDL version 430,2013-06-30 20:11:00,
2013-06-30 15:16:00,75.9,57.5,29.83,NE,40,5.3,13.4,51,0.00,,,0.00,WSDL version 430,2013-06-30 20:16:00,
2013-06-30 15:21:00,75.9,58.0,29.83,NNE,29,5.6,13.4,54,0.00,,,0.00,WSDL version 430,2013-06-30 20:21:00,
2013-06-30 15:26:00,76.0,58.5,29.83,NNE,33,7.0,10.7,54,0.00,,,0.00,WSDL version 430,2013-06-30 20:26:00,
2013-06-30 15:31:00,76.1,58.3,29.83,NNE,32,5.9,12.1,55,0.00,,,0.00,WSDL version 430,2013-06-30 20:31:00,
2013-06-30 15:36:00,76.1,58.7,29.83,NNE,29,6.7,12.5,55,0.00,,,0.00,WSDL version 430,2013-06-30 20:36:00,
2013-06-30 15:41:00,76.2,59.7,29.83,NE,39,6.1,12.5,57,0.00,,,0.00,WSDL version 430,2013-06-30 20:41:00,
2013-06-30 15:46:00,76.5,60.8,29.83,NE,39,5.8,8.5,59,0.00,,,0.00,WSDL version 430,2013-06-30 20:46:00,
2013-06-30 15:51:00,76.5,60.5,29.83,NNE,28,6.9,10.7,57,0.00,,,0.00,WSDL version 430,2013-06-30 20:51:00,
2013-06-30 15:56:00,76.4,59.4,29.83,NNE,23,8.6,15.7,55,0.00,,,0.00,WSDL version 430,2013-06-30 20:56:00,
2013-06-30 16:01:00,76.5,58.8,29.83,NNE,17,7.0,15.7,54,0.00,,,0.00,WSDL version 430,2013-06-30 21:01:00,
2013-06-30 16:06:00,76.4,58.8,29.83,NNE,13,8.9,13.2,54,0.00,,,0.00,WSDL version 430,2013-06-30 21:06:00,
2013-06-30 16:11:00,76.0,58.2,29.83,NE,34,5.0,13.4,54,0.00,,,0.00,WSDL version 430,2013-06-30 21:11:00,
2013-06-30 16:16:00,75.7,58.5,29.83,NNE,25,4.7,13.4,56,0.00,,,0.00,WSDL version 430,2013-06-30 21:16:00,
2013-06-30 16:21:00,75.5,58.8,29.83,NNE,25,6.5,10.1,57,0.00,,,0.00,WSDL version 430,2013-06-30 21:21:00,
2013-06-30 16:26:00,75.2,58.4,29.83,NNE,23,6.7,10.1,57,0.00,,,0.00,WSDL version 430,2013-06-30 21:26:00,
2013-06-30 16:31:00,74.9,58.3,29.84,NE,35,6.2,9.8,56,0.00,,,0.00,WSDL version 430,2013-06-30 21:31:00,
2013-06-30 16:36:00,74.8,58.6,29.84,NNE,19,5.6,8.5,57,0.00,,,0.00,WSDL version 430,2013-06-30 21:36:00,
2013-06-30 16:41:00,74.7,58.8,29.84,North,3,4.5,8.5,58,0.00,,,0.00,WSDL version 430,2013-06-30 21:41:00,
2013-06-30 16:46:00,74.6,59.6,29.84,NNE,23,6.5,8.1,61,0.00,,,0.00,WSDL version 430,2013-06-30 21:46:00,
2013-06-30 16:51:00,74.9,60.5,29.84,NNE,17,4.5,8.1,60,0.00,,,0.00,WSDL version 430,2013-06-30 21:51:00,
2013-06-30 16:56:00,74.8,60.7,29.84,North,354,7.7,10.5,63,0.00,,,0.00,WSDL version 430,2013-06-30 21:56:00,
2013-06-30 17:01:00,74.3,61.0,29.85,North,3,8.3,12.3,64,0.00,,,0.00,WSDL version 430,2013-06-30 22:01:00,
2013-06-30 17:06:00,73.6,60.5,29.85,North,8,7.8,13.2,63,0.00,,,0.00,WSDL version 430,2013-06-30 22:06:00,
2013-06-30 17:11:00,73.0,60.1,29.85,North,5,6.6,13.2,64,0.00,,,0.00,WSDL version 430,2013-06-30 22:11:00,
2013-06-30 17:16:00,72.6,59.9,29.85,North,11,6.3,10.5,65,0.00,,,0.00,WSDL version 430,2013-06-30 22:16:00,
2013-06-30 17:21:00,72.4,60.2,29.85,North,6,5.0,10.5,65,0.00,,,0.00,WSDL version 430,2013-06-30 22:21:00,
2013-06-30 17:26:00,72.2,59.9,29.85,North,353,3.3,8.5,66,0.00,,,0.00,WSDL version 430,2013-06-30 22:26:00,
2013-06-30 17:31:00,72.1,60.9,29.85,North,360,4.6,8.5,69,0.00,,,0.00,WSDL version 430,2013-06-30 22:31:00,
2013-06-30 17:36:00,72.4,61.3,29.85,North,8,6.0,10.3,68,0.00,,,0.00,WSDL version 430,2013-06-30 22:36:00,
2013-06-30 17:41:00,72.5,60.8,29.85,NNE,20,5.4,10.3,66,0.00,,,0.00,WSDL version 430,2013-06-30 22:41:00,
2013-06-30 17:46:00,72.5,60.3,29.85,North,8,4.9,10.1,65,0.00,,,0.00,WSDL version 430,2013-06-30 22:46:00,
2013-06-30 17:51:00,72.5,59.4,29.85,North,349,6.6,10.3,63,0.00,,,0.00,WSDL version 430,2013-06-30 22:51:00,
2013-06-30 17:56:00,72.5,59.3,29.85,North,10,5.4,10.3,64,0.00,,,0.00,WSDL version 430,2013-06-30 22:56:00,
2013-06-30 18:01:00,72.4,59.7,29.85,NNE,23,6.7,9.8,65,0.00,,,0.00,WSDL version 430,2013-06-30 23:01:00,
2013-06-30 18:06:00,72.4,60.1,29.85,NNE,23,3.9,8.9,66,0.00,,,0.00,WSDL version 430,2013-06-30 23:06:00,
2013-06-30 18:12:00,72.5,60.3,29.85,NNE,25,4.2,7.4,66,0.00,,,0.00,WSDL version 430,2013-06-30 23:12:00,
2013-06-30 18:17:00,72.5,60.5,29.86,NNE,28,5.0,7.8,66,0.00,,,0.00,WSDL version 430,2013-06-30 23:17:00,
2013-06-30 18:22:00,72.5,60.5,29.86,NNE,15,4.7,8.7,66,0.00,,,0.00,WSDL version 430,2013-06-30 23:22:00,
2013-06-30 18:27:00,72.5,60.5,29.86,NNE,23,3.7,8.7,66,0.00,,,0.00,WSDL version 430,2013-06-30 23:27:00,
2013-06-30 18:32:00,72.5,60.5,29.86,NNE,25,3.6,7.8,66,0.00,,,0.00,WSDL version 430,2013-06-30 23:32:00,
2013-06-30 18:37:00,72.5,60.5,29.86,NNE,14,4.4,6.5,66,0.00,,,0.00,WSDL version 430,2013-06-30 23:37:00,
2013-06-30 18:42:00,72.5,60.5,29.86,NNE,25,3.1,6.5,66,0.00,,,0.00,WSDL version 430,2013-06-30 23:42:00,
2013-06-30 18:47:00,72.4,60.5,29.86,NNE,25,4.0,6.5,66,0.00,,,0.00,WSDL version 430,2013-06-30 23:47:00,
2013-06-30 18:52:00,72.3,60.3,29.86,NE,38,3.3,5.6,66,0.00,,,0.00,WSDL version 430,2013-06-30 23:52:00,
2013-06-30 18:57:00,72.3,60.7,29.86,North,5,3.2,5.6,67,0.00,,,0.00,WSDL version 430,2013-06-30 23:57:00,
2013-06-30 19:02:00,72.1,60.6,29.86,NNE,26,2.8,5.6,67,0.00,,,0.00,WSDL version 430,2013-07-01 00:02:00,
2013-06-30 19:07:00,72.1,60.6,29.86,NNE,20,3.7,5.8,67,0.00,,,0.00,WSDL version 430,2013-07-01 00:07:00,
2013-06-30 19:12:00,72.1,60.5,29.86,NNE,26,5.0,7.4,67,0.00,,,0.00,WSDL version 430,2013-07-01 00:12:00,
2013-06-30 19:17:00,72.0,60.0,29.86,NNE,28,3.8,7.4,66,0.00,,,0.00,WSDL version 430,2013-07-01 00:17:00,
2013-06-30 19:22:00,71.8,59.9,29.86,NNE,25,3.6,7.4,66,0.00,,,0.00,WSDL version 430,2013-07-01 00:22:00,
2013-06-30 19:27:00,71.8,59.5,29.87,NNE,30,4.1,7.6,65,0.00,,,0.00,WSDL version 430,2013-07-01 00:27:00,
2013-06-30 19:32:00,71.7,59.3,29.87,North,9,3.6,8.1,65,0.00,,,0.00,WSDL version 430,2013-07-01 00:32:00,
2013-06-30 19:37:00,71.6,59.2,29.87,North,0,0.0,8.1,65,0.00,,,0.00,WSDL version 430,2013-07-01 00:37:00,